Location: Christchurch
(43.5330°S, 172.6330°E)
Time: 15:59:51
(UTC+13:00)

ISS - Visible Passes

Search period start: 05 October 2023 00:00
Search period end: 15 October 2023 00:00
Orbit: 413 x 421 km, 51.6° (Epoch: 04 October)

Date Brightness Start Highest point End Pass type
(mag) Time Alt. Az. Time Alt. Az. Time Alt. Az.
05 Oct -1.5 04:40:53 20° S 04:41:22 21° S 04:44:04 10° SE visible
05 Oct -2.5 06:15:27 10° SW 06:18:46 41° SSE 06:22:03 10° E visible
06 Oct -0.6 03:54:34 15° SE 03:54:34 15° SE 03:55:39 10° SE visible
06 Oct -2.0 05:27:28 11° SW 05:30:28 31° SSE 05:33:34 10° E visible
07 Oct -1.7 04:41:11 23° SSW 04:42:04 26° SSE 04:45:01 10° ESE visible
07 Oct -3.7 06:15:43 10° WSW 06:19:11 89° SE 06:22:36 10° ENE visible
08 Oct -0.8 03:54:58 18° SE 03:54:58 18° SE 03:56:24 10° ESE visible
08 Oct -3.1 05:27:53 13° SW 05:30:53 58° SSE 05:34:17 10° ENE visible
09 Oct -2.5 04:41:48 35° S 04:42:31 40° SSE 04:45:47 10° E visible
09 Oct -3.0 06:16:04 10° WSW 06:19:15 35° NW 06:22:24 10° NNE visible
10 Oct -1.0 03:55:54 18° ESE 03:55:54 18° ESE 03:57:09 10° E visible
10 Oct -3.7 05:28:51 21° WSW 05:30:59 59° NW 05:34:21 10° NE visible
11 Oct -3.3 04:43:13 59° ENE 04:43:13 59° ENE 04:46:04 10° ENE visible
11 Oct -1.8 06:17:08 10° W 06:18:57 14° NW 06:20:45 10° NNW visible
12 Oct -2.4 05:30:56 22° NW 05:30:56 22° NW 05:33:28 10° N visible
13 Oct -2.9 21:22:12 10° NNW 21:24:41 33° N 21:24:41 33° N visible
14 Oct -2.4 20:34:17 10° N 20:37:01 22° NE 20:39:40 10° E visible
14 Oct -2.5 22:10:10 10° WNW 22:12:39 40° W 22:12:39 40° W visible
